Flag for Switzerland Weather past 2 weeks in Köniz, Bern, Switzerland

Now
48 °F

Partly sunny.


Feels Like: 45 °F
Forecast: 32 / 58 °F
Wind: 7 mph from Southeast

Location: Bern / Belp

Current Time: Apr 28, 2015 at 5:30:10 PM

Latest Report: Apr 28, 2015 at 4:50 PM


Visibility: N/A

Pressure: 30.12 "Hg

Humidity: 71%

Dew point: 39 °F

Location of KönizLocation

Historic Weather in Köniz — Graph

°F

Köniz temperature yesterday

Maximum temperature yesterday: 70 °F (at 3:20 PM)
Minimum temperature yesterday: 45 °F (at 3:50 AM)
Average temperature yesterday: 56 °F

Past Weeks' High & Low Weather Summary

 TemperatureHumidityPressure
High75 °F (Apr 15, 6:50 PM)100% (Apr 14, 5:50 AM)30.45 "Hg (Apr 14, 5:50 AM)
Low28 °F (Apr 19, 6:50 AM)17% (Apr 14, 6:20 PM)29.50 "Hg (Apr 27, 2:20 PM)
Average52 °F71%30.05 "Hg
* Reported Apr 13 4:20 PM — Apr 28 4:20 PM, Köniz, Weather by CustomWeather, © 2015

Note: Actual official high and low records may vary slightly from our data, if they occured in-between our weather recording intervals... More about our weather records

Advertising

Köniz weather history for previous 24 hours

 ConditionsComfort  
Time TempWeatherWind HumidityBarometerVisibility
4:20 PM
Tue, Apr 28
48 °FPartly sunny.7 mph76%30.12 "HgN/A
3:50 PM46 °FPartly sunny.6 mph76%30.12 "HgN/A
3:20 PM48 °FPartly sunny.5 mph71%30.09 "HgN/A
2:50 PM46 °FPartly sunny.3 mph82%30.09 "HgN/A
2:20 PM46 °FPartly sunny.1 mph82%30.09 "HgN/A
1:50 PM46 °FPartly sunny.2 mph76%30.07 "HgN/A
1:20 PM46 °FOvercast.3 mph71%30.07 "HgN/A
12:50 PM46 °FPartly sunny.6 mph76%30.07 "HgN/A
12:20 PM46 °FPartly sunny.7 mph71%30.04 "HgN/A
11:50 AM46 °FMore clouds than sun.6 mph76%30.04 "HgN/A
11:20 AM46 °FOvercast.6 mph76%30.04 "HgN/A
10:50 AM46 °FPartly sunny.7 mph76%30.01 "HgN/A
10:20 AM45 °FOvercast.8 mph81%30.01 "HgN/A
9:50 AM45 °FOvercast.8 mph81%29.98 "HgN/A
9:20 AM45 °FLight rain. Broken clouds.9 mph81%29.98 "HgN/A
8:50 AM45 °FLight rain. Partly sunny.8 mph87%29.95 "HgN/A
8:20 AM45 °FLight rain. More clouds than sun.8 mph87%29.92 "Hg5 mi
7:50 AM45 °FLight rain. Partly sunny.6 mph87%29.92 "Hg5 mi
7:20 AM45 °FLight rain. More clouds than sun.3 mph87%29.89 "Hg5 mi
6:50 AM45 °FLight rain. Mostly cloudy.7 mph87%29.86 "Hg5 mi
6:20 AM45 °FLight rain. Mostly cloudy.7 mph87%29.86 "Hg5 mi
5:20 AM46 °FLight rain. Partly cloudy.9 mph87%29.83 "Hg5 mi
4:50 AM46 °FLight rain. Passing clouds.9 mph87%29.80 "HgN/A
4:20 AM46 °FLight rain. Passing clouds.14 mph87%29.80 "HgN/A
3:50 AM46 °FLight rain. Partly cloudy.16 mph87%29.77 "HgN/A
3:20 AM46 °FLight rain. Partly cloudy.14 mph87%29.77 "HgN/A
2:50 AM48 °FLight rain. Passing clouds.14 mph87%29.74 "HgN/A
2:20 AM48 °FLight rain. Mostly cloudy.13 mph87%29.71 "HgN/A
1:50 AM50 °FRain. Passing clouds.13 mph88%29.71 "HgN/A
1:20 AM52 °FLight rain. Partly cloudy.14 mph88%29.65 "HgN/A
12:50 AM54 °FSprinkles. Passing clouds.14 mph82%29.65 "HgN/A
12:20 AM55 °FPartly cloudy.9 mph88%29.62 "HgN/A
11:20 PM
Mon, Apr 27
55 °FPartly cloudy.9 mph88%29.59 "HgN/A
10:50 PM55 °FPartly cloudy.6 mph88%29.59 "HgN/A
10:20 PM55 °FPartly cloudy.2 mph94%29.59 "HgN/A
9:50 PM54 °FSprinkles. Partly cloudy.2 mph100%29.59 "HgN/A
9:20 PM55 °FBroken clouds.3 mph94%29.56 "HgN/A
8:50 PM55 °FSprinkles. Partly sunny.5 mph88%29.56 "HgN/A
8:20 PM55 °FDrizzle. Partly sunny.2 mph94%29.56 "HgN/A
7:50 PM59 °FRain. Partly sunny.3 mph68%29.53 "HgN/A
7:20 PM61 °FBroken clouds.8 mph63%29.53 "HgN/A
6:50 PM61 °FThundershowers. Broken clouds.10 mph68%29.50 "HgN/A
6:20 PM61 °FBroken clouds.12 mph63%29.50 "HgN/A
5:50 PM63 °FPartly sunny.8 mph73%29.50 "HgN/A
5:20 PM66 °FPartly sunny.7 mph60%29.50 "HgN/A
Weather by CustomWeather, © 2015

See weather overviewHow to use our weather pages